"2009-02-18 00:00:30",639709,12.97,313.1,4.91,0.83,8.39,101.7785,3.838,5.083,27.44,0,110,13.41,4.60,275.1
"2009-02-18 00:01:00",639710,12.73,318.4,4.644,1.035,8.11,101.7675,3.81,5.073,27.53,0,110,13.41,4.57,280.4
"2009-02-18 00:01:30",639711,11.75,317.1,6.595,1.165,8.07,101.763,3.798,5.053,27.55,0,110,13.41,4.56,279.1
"2009-02-18 00:02:00",639712,12.96,323.3,5.968,1.044,8.03,101.757,3.783,5.006,27.65,0,109.9,13.41,4.55,285.3
"2009-02-18 00:02:30",639713,12.63,321.2,6.009,0.885,8.21,101.7497,3.764,5.007,27.78,0,109.9,13.41,4.53,283.2
"2009-02-18 00:03:00",639714,13.53,327.4,3.855,0.863,8.25,101.7486,3.761,5.005,27.65,0,110,13.41,4.53,289.4
"2009-02-18 00:03:30",639715,13.44,324.9,5.527,1.035,8.23,101.7436,3.749,5.023,27.88,0,109.9,13.4,4.51,286.9
"2009-02-18 00:04:00",639716,12.48,320.4,6.143,1.067,8.22,101.738,3.734,4.997,27.97,0,109.9,13.4,4.50,282.4
"2009-02-18 00:04:30",639717,12.27,319.7,3.733,1.08,8.31,101.738,3.734,4.96,28.16,0,109.9,13.4,4.50,281.7
"2009-02-18 00:05:00",639718,12.05,315.8,4.654,0.817,8.1,101.7371,3.732,4.955,28.23,0,109.9,13.4,4.50,277.8
"2009-02-18 00:05:30",639719,11.19,309,3.894,0.909,7.948,101.7374,3.733,4.973,28.28,0,109.9,13.4,4.50,271.0
"2009-02-18 00:06:00",639720,12.22,306.9,4.721,1.044,7.716,101.7391,3.737,4.938,28.33,0,109.9,13.41,4.50,268.9
"2009-02-18 00:06:30",639721,12.17,308.4,4.272,1.208,7.976,101.7374,3.733,4.938,28.5,0,109.9,13.4,4.50,270.4
"2009-02-18 00:07:00",639722,13.42,305,6.017,1.077,7.727,101.7389,3.736,4.939,28.89,0,109.9,13.41,4.50,267.0
"2009-02-18 00:07:30",639723,12.88,304.1,5.584,1.571,7.877,101.7299,3.714,4.951,28.93,0,109.9,13.41,4.48,266.1
"2009-02-18 00:08:00",639724,14.54,306.4,4.708,1.013,7.728,101.7127,3.67,4.918,29.09,0,109.9,13.41,4.43,268.4
"2009-02-18 00:08:30",639725,14.93,314.3,3.24,1.012,7.961,101.7093,3.661,4.908,29.09,0,109.9,13.41,4.43,276.3
"2009-02-18 00:09:00",639726,15.31,310.3,4.176,1.059,8.04,101.713,3.67,4.889,29.65,0,109.9,13.41,4.44,272.3
"2009-02-18 00:09:30",639727,15.29,306.8,4.221,1.429,8.22,101.6893,3.61,4.879,29.91,0,109.9,13.41,4.37,268.8
"2009-02-18 00:10:00",639728,15.71,304.3,3.269,0.872,8.28,101.684,3.596,4.835,30.2,0,109.9,13.41,4.36,266.3
"2009-02-18 00:10:30",639729,14.9,311.9,2.961,0.745,8.54,101.6803,3.587,4.831,30.48,0,109.9,13.41,4.35,273.9
"2009-02-18 00:11:00",639730,14.5,314,3.077,0.804,8.49,101.6575,3.529,4.8,30.1,0,109.9,13.41,4.29,276.0
"2009-02-18 00:11:30",639731,14.65,314.1,3.24,0.878,8.49,101.6533,3.518,4.781,29.82,0,109.9,13.41,4.28,276.1
"2009-02-18 00:12:00",639732,14.84,317.9,3.78,0.82,8.69,101.6454,3.498,4.751,29.92,0,109.9,13.41,4.26,279.9
"2009-02-18 00:12:30",639733,13.79,317.4,3.188,0.969,8.76,101.629,3.456,4.729,30.09,0,109.9,13.41,4.22,279.4
"2009-02-18 00:13:00",639734,14.8,320,3.087,0.826,8.68,101.6251,3.446,4.712,30.08,0,109.9,13.41,4.21,282.0
"2009-02-18 00:13:30",639735,14.64,318.2,2.858,0.862,8.5,101.6257,3.448,4.689,30.23,0,109.9,13.42,4.21,280.2
"2009-02-18 00:14:00",639736,13.96,321.3,3.652,0.873,8.65,101.6045,3.394,4.648,30.5,0,109.9,13.42,4.16,283.3
"2009-02-18 00:14:30",639737,13.58,317.4,6.137,0.849,8.89,101.5941,3.367,4.657,30.54,0,109.9,13.42,4.13,279.4
"2009-02-18 00:15:00",639738,15.48,313,3.408,1.484,8.59,101.5932,3.365,4.62,30.73,0,109.9,13.42,4.13,275.0
"2009-02-18 00:15:30",639739,15.44,311.8,4.525,1.207,8.44,101.5932,3.365,4.629,31.27,0,109.9,13.42,4.13,273.8
"2009-02-18 00:16:00",639740,15.36,319.1,5.506,1.553,8.61,101.578,3.326,4.607,31.35,0,109.9,13.42,4.09,281.1
"2009-02-18 00:16:30",639741,16.92,320,2.874,1.129,8.76,101.5596,3.279,4.585,31.56,0,109.9,13.42,4.04,282.0
"2009-02-18 00:17:00",639742,16.87,316.1,3.792,1.331,8.58,101.5593,3.278,4.55,31.89,0,109.9,13.42,4.04,278.1
"2009-02-18 00:17:30",639743,15.64,310.3,5.95,1.27,8.68,101.5441,3.239,4.53,32.26,0,109.9,13.43,4.00,272.3
"2009-02-18 00:18:00",639744,16.38,310.9,4.847,1.309,8.55,101.5254,3.192,4.5,32.46,0,109.9,13.43,3.95,272.9
"2009-02-18 00:18:30",639745,18.47,310.9,3.646,1.153,8.66,101.513,3.16,4.471,32.78,0,109.9,13.42,3.92,272.9
"2009-02-18 00:19:00",639746,17.26,318.3,3.943,0.871,8.86,101.4915,3.105,4.432,32.84,0,109.9,13.42,3.87,280.3
"2009-02-18 00:19:30",639747,18.04,315.2,4.752,0.884,8.94,101.4912,3.104,4.425,33.06,0,109.9,13.42,3.87,277.2
"2009-02-18 00:20:00",639748,17.45,313.4,3.764,0.816,8.96,101.4732,3.058,4.395,33.13,0,109.9,13.42,3.82,275.4
"2009-02-18 00:20:30",639749,14.74,313.1,4.605,1.483,8.9,101.4608,3.027,4.341,33.33,0,109.9,13.42,3.79,275.1
"2009-02-18 00:21:00",639750,17.48,319.5,5.455,2.409,8.54,101.4469,2.991,4.32,33.56,0,109.9,13.42,3.75,281.5
"2009-02-18 00:21:30",639751,21.53,315.4,4.573,1.321,8.35,101.4283,2.944,4.295,34.33,0,109.9,13.42,3.71,277.4
"2009-02-18 00:22:00",639752,22.12,311.1,2.651,0.86,8.66,101.4295,2.947,4.257,34.05,0,109.9,13.43,3.71,273.1
"2009-02-18 00:22:30",639753,21.62,316.3,2.742,1.005,9.13,101.4069,2.889,4.223,34.51,0,109.9,13.43,3.65,278.3
"2009-02-18 00:23:00",639754,20.54,311.1,6.157,1.825,9.52,101.4036,2.881,4.201,33.9,0,109.9,13.43,3.64,273.1
"2009-02-18 00:23:30",639755,19.48,310.6,4.414,1.995,9.18,101.4057,2.886,4.2,33.73,0,109.9,13.43,3.65,272.6
"2009-02-18 00:24:00",639756,16.2,314.5,4.615,1.297,9.21,101.3831,2.828,4.159,33.92,0,109.9,13.43,3.59,276.5
"2009-02-18 00:24:30",639757,17.31,316.3,3.076,1.813,8.99,101.3843,2.831,4.106,33.86,0,109.8,13.43,3.59,278.3
"2009-02-18 00:25:00",639758,19.94,319.8,3.076,1.062,8.61,101.3733,2.803,4.078,35.4,0,109.8,13.44,3.57,281.8
"2009-02-18 00:25:30",639759,20.95,314.3,2.891,1.282,8.77,101.3558,2.759,4.074,35.81,0,109.8,13.44,3.52,276.3
"2009-02-18 00:26:00",639760,18.67,315.4,5.025,1.831,9.26,101.3358,2.708,4.032,35.32,0,109.8,13.44,3.47,277.4
"2009-02-18 00:26:30",639761,17.82,315.6,3.258,1.048,8.99,101.3228,2.674,3.991,35.3,0,109.8,13.44,3.44,277.6
"2009-02-18 00:27:00",639762,19.07,315.2,3.824,0.995,8.63,101.3165,2.659,3.976,37.2,0,109.8,13.44,3.42,277.2
"2009-02-18 00:27:30",639763,19.35,317.6,3.4,1.141,8.65,101.2914,2.594,3.931,37.55,0,109.8,13.44,3.36,279.6
"2009-02-18 00:28:00",639764,18.49,317.2,5.502,1.375,8.85,101.277,2.558,3.894,37.55,0,109.8,13.44,3.32,279.2
"2009-02-18 00:28:30",639765,19.48,315.3,5.123,1.035,9.08,101.2549,2.501,3.852,37.1,0,109.8,13.44,3.26,277.3
"2009-02-18 00:29:00",639766,19.35,314.1,3.727,0.868,8.81,101.2547,2.501,3.815,37.1,0,109.8,13.44,3.26,276.1
"2009-02-18 00:29:30",639767,19.24,307.9,3.944,0.846,8.91,101.2388,2.46,3.799,36.91,0,109.8,13.44,3.22,269.9
"2009-02-18 00:30:00",639768,19.03,308.9,2.57,0.918,8.76,101.2213,2.416,3.757,36.34,0,109.8,13.44,3.18,270.9
"2009-02-18 00:30:30",639769,18.35,308.4,3.911,0.886,8.82,101.2207,2.414,3.728,36.63,0,109.8,13.45,3.17,270.4
"2009-02-18 00:31:00",639770,17.6,310.6,4.047,0.799,8.69,101.2182,2.408,3.7,37.38,0,109.8,13.45,3.17,272.6
"2009-02-18 00:31:30",639771,18.21,308.7,4.715,1.195,8.74,101.1964,2.352,3.695,37.28,0,109.8,13.45,3.11,270.7
"2009-02-18 00:32:00",639772,19.1,308.9,4.646,1.239,8.62,101.1868,2.328,3.677,37.31,0,109.8,13.45,3.09,270.9
"2009-02-18 00:32:30",639773,19.53,307.4,3.151,0.882,8.74,101.1868,2.328,3.642,37.64,0,109.8,13.45,3.09,269.4
"2009-02-18 00:33:00",639774,18.28,309.5,4.419,1.001,8.79,101.1786,2.307,3.61,37.66,0,109.8,13.46,3.07,271.5
"2009-02-18 00:33:30",639775,17.19,307.5,3.926,1.01,8.62,101.1625,2.266,3.606,37.81,0,109.8,13.46,3.03,269.5
"2009-02-18 00:34:00",639776,16.03,304.1,3.227,0.902,8.55,101.1529,2.241,3.552,37.8,0,109.8,13.46,3.00,266.1
"2009-02-18 00:34:30",639777,16.65,305.9,2.841,1.122,8.43,101.1529,2.241,3.557,37.8,0,109.8,13.46,3.00,267.9
"2009-02-18 00:35:00",639778,16.64,306.7,3.364,0.61,8.19,101.1467,2.225,3.519,37.84,0,109.8,13.45,2.98,268.7
"2009-02-18 00:35:30",639779,15.87,305.3,2.431,0.942,8.04,101.1272,2.175,3.513,38.25,0,109.8,13.45,2.94,267.3
"2009-02-18 00:36:00",639780,16.31,307,4.087,0.809,8.27,101.1242,2.168,3.492,38.83,0,109.8,13.45,2.93,269.0
"2009-02-18 00:36:30",639781,15.76,309.5,5.299,1.087,8.5,101.1302,2.183,3.468,38.51,0,109.8,13.45,2.94,271.5
"2009-02-18 00:37:00",639782,15.81,312,6.289,0.89,8.37,101.1226,2.164,3.446,38.11,0,109.8,13.45,2.92,274.0
"2009-02-18 00:37:30",639783,14.69,300.4,5.029,1.215,8.28,101.1161,2.147,3.442,37.94,0,109.8,13.46,2.91,262.4
"2009-02-18 00:38:00",639784,14.92,299.5,3.596,1.094,8.14,101.1108,2.134,3.412,38.15,0,109.8,13.46,2.89,261.5
"2009-02-18 00:38:30",639785,14.55,300,4.228,0.995,7.949,101.1123,2.137,3.405,38.59,0,109.8,13.46,2.90,262.0
"2009-02-18 00:39:00",639786,14.16,300.1,2.981,0.855,7.703,101.114,2.142,3.374,39.16,0,109.7,13.46,2.90,262.1
"2009-02-18 00:39:30",639787,13.99,302.4,3.639,0.785,7.591,101.1162,2.147,3.38,39.06,0,109.7,13.46,2.91,264.4
"2009-02-18 00:40:00",639788,13.39,299.2,3.723,0.701,7.708,101.1185,2.153,3.352,39,0,109.7,13.46,2.91,261.2
"2009-02-18 00:40:30",639789,13.38,300,3.672,0.739,7.762,101.1151,2.145,3.331,38.8,0,109.7,13.46,2.90,262.0
"2009-02-18 00:41:00",639790,12.95,293.9,3.884,0.937,7.671,101.1098,2.131,3.347,38.25,0,109.7,13.47,2.89,255.9
"2009-02-18 00:41:30",639791,13.43,296.3,5.555,1.188,7.646,101.1118,2.136,3.347,37.95,0,109.7,13.47,2.90,258.3
"2009-02-18 00:42:00",639792,13.32,309.2,7.845,1.196,7.95,101.1188,2.154,3.343,36.01,0,109.7,13.47,2.91,271.2
"2009-02-18 00:42:30",639793,11.83,314.9,5.419,1.103,7.913,101.1214,2.16,3.342,34.96,0,109.7,13.47,2.92,276.9
"2009-02-18 00:43:00",639794,10.37,302.2,8.82,0.954,7.735,101.1491,2.231,3.372,35.62,0,109.7,13.47,2.99,264.2
"2009-02-18 00:43:30",639795,10.96,294.2,7.168,1.156,7.448,101.1533,2.242,3.402,36.33,0,109.7,13.47,3.00,256.2
"2009-02-18 00:44:00",639796,10.9,293.9,5.62,0.961,7.42,101.1533,2.242,3.422,36.48,0,109.7,13.47,3.00,255.9
"2009-02-18 00:44:30",639797,12.02,305.2,7.195,1.15,7.375,101.1584,2.255,3.431,36.53,0,109.7,13.47,3.01,267.2
"2009-02-18 00:45:00",639798,9.77,298.7,4.954,0.881,7.121,101.1663,2.275,3.439,36.48,0,109.7,13.47,3.04,260.7
"2009-02-18 00:45:30",639799,10.32,295.8,4.485,0.836,6.989,101.1714,2.288,3.461,36.4,0,109.7,13.47,3.05,257.8
"2009-02-18 00:46:00",639800,10.08,302.5,5.739,0.894,6.69,101.172,2.29,3.465,36.76,0,109.7,13.47,3.05,264.5
"2009-02-18 00:46:30",639801,9.28,318.3,9.28,0.878,6.727,101.1692,2.282,3.468,36.55,0,109.7,13.47,3.04,280.3
"2009-02-18 00:47:00",639802,9.13,307.1,7.043,1.499,6.141,101.1714,2.288,3.476,36.69,0,109.7,13.47,3.05,269.1
"2009-02-18 00:47:30",639803,12.08,322.4,5.502,1.513,6.942,101.1841,2.321,3.454,33.65,0,109.7,13.47,3.08,284.4
"2009-02-18 00:48:00",639804,11.49,322.7,6.218,0.997,7.116,101.2062,2.377,3.49,32.28,0,109.7,13.47,3.14,284.7
"2009-02-18 00:48:30",639805,11.88,330.7,3.801,0.941,7.922,101.2302,2.438,3.553,32.06,0,109.7,13.47,3.20,292.7
"2009-02-18 00:49:00",639806,11.69,337.4,4.594,0.514,8.26,101.2704,2.541,3.607,29.9,0,109.7,13.48,3.30,299.4
"2009-02-18 00:49:30",639807,10.9,339.6,2.272,0.914,8.28,101.3139,2.652,3.672,28.88,0,109.7,13.48,3.41,301.6
"2009-02-18 00:50:00",639808,10.49,339.4,4.658,0.706,8.31,101.3657,2.784,3.783,27.96,0,109.7,13.47,3.55,301.4
"2009-02-18 00:50:30",639809,10.57,330.6,4.197,0.684,7.807,101.4112,2.9,3.852,27.96,0,109.7,13.48,3.66,292.6
"2009-02-18 00:51:00",639810,9.94,330.9,7.79,1.059,7.646,101.4359,2.963,3.942,29.87,0,109.7,13.48,3.73,292.9
"2009-02-18 00:51:30",639811,10.37,332.6,5.701,0.774,7.6,101.4531,3.007,4.001,29.53,0,109.7,13.47,3.77,294.6
"2009-02-18 00:52:00",639812,9.16,341.8,6.145,1.133,7.542,101.4696,3.049,4.04,30.53,0,109.7,13.47,3.81,303.8
"2009-02-18 00:52:30",639813,8.45,349.8,11.02,1.138,7.557,101.4755,3.064,4.081,29.57,0,109.7,13.47,3.83,311.8
"2009-02-18 00:53:00",639814,7.935,330.5,8.62,1.022,6.39,101.4747,3.062,4.073,29.62,0,109.7,13.47,3.82,292.5
"2009-02-18 00:53:30",639815,6.153,319.1,7.262,0.775,3.043,101.4753,3.064,3.856,29.73,0,109.7,13.47,3.83,281.1
"2009-02-18 00:54:00",639816,7.096,327,7.101,1.374,4.919,101.4764,3.067,3.999,30.84,0,109.7,13.47,3.83,289.0
"2009-02-18 00:54:30",639817,8.16,322.6,6.952,1.272,6.924,101.4631,3.033,4.106,31.65,0,109.7,13.47,3.80,284.6
"2009-02-18 00:55:00",639818,7.841,329.9,4.184,0.993,8.23,101.4439,2.984,4.133,31.47,0,109.7,13.48,3.75,291.9
"2009-02-18 00:55:30",639819,9.11,333.8,6.39,0.946,8.74,101.443,2.981,4.159,30.8,0,109.7,13.48,3.74,295.8
"2009-02-18 00:56:00",639820,9.84,329.9,5.574,0.601,8.28,101.4451,2.987,4.156,30.65,0,109.7,13.48,3.75,291.9
"2009-02-18 00:56:30",639821,9.42,333.9,5.114,0.671,7.913,101.4485,2.995,4.131,30.97,0,109.7,13.48,3.76,295.9
"2009-02-18 00:57:00",639822,8.41,322.9,8.25,0.852,7.444,101.4386,2.97,4.15,32.32,0,109.7,13.49,3.73,284.9
"2009-02-18 00:57:30",639823,8.04,326.9,5.775,1.126,7.037,101.4123,2.903,4.127,33.19,0,109.7,13.49,3.67,288.9
"2009-02-18 00:58:00",639824,7.78,325.7,4.215,0.939,6.574,101.3832,2.829,4.016,33.61,0,109.7,13.49,3.59,287.7
"2009-02-18 00:58:30",639825,6.729,320.9,4.504,0.839,3.992,101.377,2.813,3.912,32.32,0,109.7,13.49,3.57,282.9
"2009-02-18 00:59:00",639826,7.363,337,6.749,1.222,4.99,101.3792,2.819,3.865,31.26,0,109.7,13.49,3.58,299.0
"2009-02-18 00:59:30",639827,8.09,337.1,9.22,1.228,6.068,101.3835,2.829,3.854,30.76,0,109.7,13.49,3.59,299.1
"2009-02-18 01:00:00",639828,9.83,350.4,11.16,0.799,8.37,101.3832,2.829,4.014,30.87,0,109.7,13.49,3.59,312.4
"2009-02-18 01:00:30",639829,9.76,349.4,4.974,0.942,8.65,101.3945,2.858,4.027,30.02,0,109.7,13.49,3.62,311.4
"2009-02-18 01:01:00",639830,9.79,356.7,4.133,0.75,8.21,101.4166,2.914,4.056,30.63,0,109.6,13.49,3.68,318.7
"2009-02-18 01:01:30",639831,8.02,351,9.06,1.163,7.76,101.4192,2.92,4.078,30.56,0,109.7,13.49,3.68,313.0
"2009-02-18 01:02:00",639832,7.819,342.2,7.261,1.405,6.757,101.4209,2.925,3.995,30.56,0,109.7,13.49,3.69,304.2
"2009-02-18 01:02:30",639833,7.125,337,7.634,1.901,5.284,101.4237,2.932,4.019,30.52,0,109.7,13.49,3.69,299.0
"2009-02-18 01:03:00",639834,3.284,346.7,11.14,0.928,3.039,101.4249,2.935,3.826,30.84,0,109.7,13.52,3.70,308.7
"2009-02-18 01:03:30",639835,5.02,0.339,8.56,1.189,6.472,101.4249,2.935,4.053,31.07,0,109.7,13.49,3.70,322.3
"2009-02-18 01:04:00",639836,6.887,1.12,13.82,1.351,6.88,101.4249,2.935,4.018,30.29,0,109.7,13.5,3.70,323.1
"2009-02-18 01:04:30",639837,6.306,8.1,10.02,2.046,6.448,101.4291,2.946,4.051,29.72,0,109.7,13.5,3.71,330.1
"2009-02-18 01:05:00",639838,8.53,8.01,8.17,2.025,7.532,101.4526,3.006,4.033,27.94,0,109.7,13.5,3.77,330.0
"2009-02-18 01:05:30",639839,7.802,358.4,8.8,1.627,6.311,101.4625,3.031,4.075,27.97,0,109.7,13.5,3.79,320.4
"2009-02-18 01:06:00",639840,7.733,4.47,5.89,1.399,7.215,101.4809,3.078,4.186,28.51,0,109.7,13.5,3.84,326.5
"2009-02-18 01:06:30",639841,9.44,359.7,7.882,0.961,7.044,101.493,3.109,4.162,28.62,0,109.7,13.5,3.87,321.7
"2009-02-18 01:07:00",639842,7.384,1.017,9.63,1.802,6.643,101.493,3.109,4.124,27.71,0,109.7,13.5,3.87,323.0
"2009-02-18 01:07:30",639843,7.821,358.6,8.5,0.986,5.831,101.497,3.119,4.17,28.49,0,109.7,13.49,3.88,320.6
"2009-02-18 01:08:00",639844,8,351.3,11.36,1.362,6.347,101.4964,3.118,4.192,29.04,0,109.7,13.49,3.88,313.3
"2009-02-18 01:08:30",639845,6.682,10.91,14.57,1.844,7.264,101.4933,3.11,4.162,29.43,0,109.7,13.49,3.87,332.9
"2009-02-18 01:09:00",639846,6.565,16.34,11.49,1.565,7.416,101.5044,3.138,4.238,27.53,0,109.7,13.49,3.90,338.3
"2009-02-18 01:09:30",639847,8.05,7.751,14.91,1.561,6.367,101.5244,3.189,4.246,27.78,0,109.6,13.49,3.95,329.8
"2009-02-18 01:10:00",639848,6.367,2.407,10.73,2.281,7.148,101.5264,3.194,4.267,28.71,0,109.7,13.49,3.96,324.4
"2009-02-18 01:10:30",639849,6.841,356,6.53,1.152,6.44,101.523,3.185,4.189,28.5,0,109.7,13.49,3.95,318.0
"2009-02-18 01:11:00",639850,6.627,359.8,9.32,1.458,6.821,101.5267,3.195,4.293,28.22,0,109.7,13.49,3.96,321.8
"2009-02-18 01:11:30",639851,8.16,0.137,5.853,1.474,6.362,101.527,3.196,4.237,27.33,0,109.7,13.49,3.96,322.1
"2009-02-18 01:12:00",639852,8.73,2.809,8.2,0.938,7.613,101.5281,3.198,4.312,26.37,0,109.7,13.49,3.96,324.8
"2009-02-18 01:12:30",639853,7.929,350.8,6.686,1.501,6.452,101.5462,3.245,4.302,27.33,0,109.7,13.5,4.01,312.8
"2009-02-18 01:13:00",639854,8.37,348.3,6.667,0.944,6.788,101.557,3.272,4.361,27.65,0,109.7,13.5,4.04,310.3
"2009-02-18 01:13:30",639855,8.17,353.5,5.246,1.458,6.918,101.5606,3.281,4.366,27.31,0,109.7,13.5,4.04,315.5
"2009-02-18 01:14:00",639856,8.35,347.5,7.389,1.02,7.026,101.5609,3.282,4.344,27.83,0,109.7,13.5,4.05,309.5
"2009-02-18 01:14:30",639857,8.41,354,6.06,1.081,7.325,101.5482,3.25,4.35,29.21,0,109.7,13.5,4.01,316.0
"2009-02-18 01:15:00",639858,8.04,359.9,8.08,0.783,7.588,101.527,3.196,4.409,30.02,0,109.7,13.5,3.96,321.9
"2009-02-18 01:15:30",639859,6.469,5.644,6.522,1.647,6.592,101.5137,3.162,4.341,29.81,0,109.7,13.5,3.92,327.6
"2009-02-18 01:16:00",639860,5.658,4.988,8,1.644,6.001,101.493,3.109,4.259,29.53,0,109.7,13.5,3.87,327.0
"2009-02-18 01:16:30",639861,5.41,2.234,10.97,0.884,4.395,101.493,3.109,4.199,29.34,0,109.7,13.5,3.87,324.2
"2009-02-18 01:17:00",639862,5.67,4.058,9.04,1.647,5.846,101.4863,3.092,4.189,29.12,0,109.7,13.5,3.85,326.1
"2009-02-18 01:17:30",639863,5.833,6.3,7.083,1.312,7.178,101.4916,3.105,4.207,27.98,0,109.7,13.5,3.87,328.3
"2009-02-18 01:18:00",639864,6.14,4.861,10.88,1.127,7.163,101.493,3.109,4.29,28.63,0,109.7,13.51,3.87,326.9
"2009-02-18 01:18:30",639865,5.539,2.879,11.42,1.726,6.722,101.4868,3.093,4.211,29.27,0,109.7,13.51,3.86,324.9
"2009-02-18 01:19:00",639866,6.42,358.1,7.443,1.686,5.187,101.4891,3.099,4.119,27.89,0,109.7,13.51,3.86,320.1
"2009-02-18 01:19:30",639867,4.22,8.7,8.04,1.18,5.445,101.493,3.109,4.179,28.2,0,109.7,13.51,3.87,330.7
"2009-02-18 01:20:00",639868,4.813,350.1,9.83,1.003,4.22,101.4902,3.102,4.057,29.24,0,109.7,13.51,3.86,312.1
"2009-02-18 01:20:30",639869,5,350.6,12.43,1.516,6.817,101.4667,3.042,4.196,29.81,0,109.7,13.51,3.80,312.6
"2009-02-18 01:21:00",639870,3.952,17.22,15.02,1.081,7.048,101.4594,3.023,4.195,29.7,0,109.7,13.51,3.79,339.2
"2009-02-18 01:21:30",639871,4.773,14.04,12.25,1.844,5.473,101.4591,3.022,4.028,29.21,0,109.7,13.51,3.78,336.0
"2009-02-18 01:22:00",639872,5.2,6.12,8.6,1.56,4.927,101.4594,3.023,4.007,28.38,0,109.7,13.51,3.79,328.1
"2009-02-18 01:22:30",639873,5.373,5.553,8.96,1.613,6.501,101.4786,3.072,4.173,27.79,0,109.7,13.51,3.83,327.6
"2009-02-18 01:23:00",639874,6.065,4.341,8.82,2.085,6.617,101.4942,3.112,4.164,27.82,0,109.7,13.51,3.87,326.3
"2009-02-18 01:23:30",639875,7.55,5.557,7.593,1.458,7.371,101.4956,3.116,4.221,28.33,0,109.7,13.51,3.88,327.6
"2009-02-18 01:24:00",639876,7.46,9.57,8.67,2.535,7.814,101.4959,3.116,4.322,28.23,0,109.7,13.51,3.88,331.6
"2009-02-18 01:24:30",639877,5.301,10.22,12.22,1.708,6.77,101.4973,3.12,4.271,28.61,0,109.7,13.51,3.88,332.2
"2009-02-18 01:25:00",639878,6.934,5.445,8.13,1.648,6.252,101.4959,3.116,4.137,28.27,0,109.7,13.5,3.88,327.4
"2009-02-18 01:25:30",639879,4.73,359.5,10.39,1.313,4.276,101.4979,3.121,4.144,28.27,0,109.7,13.51,3.88,321.5
"2009-02-18 01:26:00",639880,4.931,7.429,9.25,2.227,6.682,101.4973,3.12,4.246,28.63,0,109.7,13.5,3.88,329.4
"2009-02-18 01:26:30",639881,6.295,4.795,8.53,1.851,7.208,101.4971,3.119,4.226,28.32,0,109.7,13.5,3.88,326.8
"2009-02-18 01:27:00",639882,8.68,347.2,13.05,0.93,7.931,101.5002,3.127,4.312,28.51,0,109.7,13.5,3.89,309.2
"2009-02-18 01:27:30",639883,6.8,325.7,9.04,1.118,6.465,101.4903,3.102,4.219,30.14,0,109.7,13.51,3.86,287.7
"2009-02-18 01:28:00",639884,6.28,333.2,8.17,1.305,6.434,101.4696,3.049,4.144,29.14,0,109.7,13.5,3.81,295.2
"2009-02-18 01:28:30",639885,3.485,348.2,10.43,1.046,3.482,101.4666,3.041,3.96,29.71,0,109.7,13.51,3.80,310.2
"2009-02-18 01:29:00",639886,4.135,1.431,12.72,1.747,5.639,101.4564,3.015,4.095,30.46,0,109.7,13.51,3.78,323.4
"2009-02-18 01:29:30",639887,4.696,358.4,7.418,1.537,6.013,101.4361,2.964,4.129,30.13,0,109.7,13.51,3.73,320.4
"2009-02-18 01:30:00",639888,3.677,358.6,12.38,1.18,5.19,101.4338,2.958,4.043,30.09,0,109.7,13.51,3.72,320.6
"2009-02-18 01:30:30",639889,4.955,355.5,16.06,1.016,6.064,101.4279,2.943,4.023,30.11,0,109.7,13.51,3.71,317.5
"2009-02-18 01:31:00",639890,4.218,322.5,9.27,0.948,5.546,101.4018,2.876,4.104,30.73,0,109.7,13.52,3.64,284.5
"2009-02-18 01:31:30",639891,3.309,299.7,15.55,0.95,3.929,101.4001,2.872,3.932,30.59,0,109.7,13.52,3.63,261.7
"2009-02-18 01:32:00",639892,4.726,343.9,18.14,1.23,5.653,101.4001,2.872,4.039,30.85,0,109.7,13.52,3.63,305.9
"2009-02-18 01:32:30",639893,5.092,354.1,13.78,1.111,6.854,101.3925,2.852,3.997,30.69,0,109.7,13.52,3.61,316.1
"2009-02-18 01:33:00",639894,5.101,336.9,8.91,1.216,5.756,101.3956,2.86,3.948,29.68,0,109.7,13.52,3.62,298.9
"2009-02-18 01:33:30",639895,4.994,353.9,12.29,1.152,6.618,101.4183,2.918,4.018,29.05,0,109.7,13.52,3.68,315.9
"2009-02-18 01:34:00",639896,4.113,7.248,9.95,1.465,5.745,101.4432,2.982,4.053,29.32,0,109.7,13.52,3.74,329.2
"2009-02-18 01:34:30",639897,4.673,31.96,9.14,1.246,5.321,101.4418,2.978,3.873,29.37,0,109.7,13.52,3.74,354.0
"2009-02-18 01:35:00",639898,3.357,20.07,7.364,0.768,4.885,101.469,3.048,4.005,28.32,0,109.7,13.52,3.81,342.1
"2009-02-18 01:35:30",639899,3.321,10.18,13.76,1.657,6.316,101.4948,3.113,4.092,28.36,0,109.7,13.52,3.88,332.2
"2009-02-18 01:36:00",639900,1.989,7.353,16.82,1.159,4.536,101.5219,3.183,4.104,27.88,0,109.7,13.53,3.95,329.4
"2009-02-18 01:36:30",639901,3.202,356.8,24.42,1.546,6.214,101.5477,3.248,4.139,27.79,0,109.7,13.53,4.01,318.8
"2009-02-18 01:37:00",639902,2.76,346.5,15.01,1.038,5.884,101.5598,3.279,4.2,27.9,0,109.7,13.53,4.04,308.5
"2009-02-18 01:37:30",639903,3.896,284,11,1.649,5.053,101.5641,3.29,4.177,28.66,0,109.7,13.53,4.05,246.0
"2009-02-18 01:38:00",639904,3.004,278.8,15.53,1.182,4.162,101.546,3.244,4.188,29.33,0,109.7,13.53,4.01,240.8
"2009-02-18 01:38:30",639905,4.74,294.1,7.331,1.447,5.884,101.5197,3.177,4.189,29.57,0,109.7,13.53,3.94,256.1
"2009-02-18 01:39:00",639906,4.946,277.8,7.844,1.409,5.281,101.5052,3.14,4.209,29.68,0,109.7,13.53,3.90,239.8
"2009-02-18 01:39:30",639907,5.146,278.2,6.816,1.309,7.129,101.4863,3.092,4.19,29.71,0,109.7,13.53,3.85,240.2
"2009-02-18 01:40:00",639908,6.241,302.9,10.72,1.124,5.891,101.4753,3.064,4.2,30.83,0,109.7,13.53,3.83,264.9
"2009-02-18 01:40:30",639909,5.862,305.8,5.723,1.122,4.263,101.4504,3,4.098,30.81,0,109.7,13.53,3.76,267.8
"2009-02-18 01:41:00",639910,6.425,308.3,6.717,0.863,6.944,101.4408,2.976,4.084,30.84,0,109.7,13.52,3.74,270.3
"2009-02-18 01:41:30",639911,7.458,305.4,7.268,1.862,5.642,101.4168,2.914,4.099,31.65,0,109.7,13.52,3.68,267.4
"2009-02-18 01:42:00",639912,8.95,302.8,7.574,1.023,7.268,101.4089,2.894,4.053,31.1,0,109.7,13.52,3.66,264.8
"2009-02-18 01:42:30",639913,9.34,297.3,6.664,1.08,6.797,101.3953,2.859,4.087,32.37,0,109.7,13.52,3.62,259.3
"2009-02-18 01:43:00",639914,9.03,297.9,7.34,1.029,6.626,101.3831,2.828,3.975,32.62,0,109.7,13.52,3.59,259.9
"2009-02-18 01:43:30",639915,8.66,291,7.85,1.273,6.666,101.3727,2.802,4.075,33.19,0,109.7,13.52,3.56,253.0
"2009-02-18 01:44:00",639916,9.07,296.7,4.754,0.991,6.971,101.352,2.749,3.992,33.08,0,109.7,13.52,3.51,258.7
"2009-02-18 01:44:30",639917,8.69,299.4,5.302,1.064,6.922,101.3509,2.746,4.018,33.19,0,109.7,13.52,3.51,261.4
"2009-02-18 01:45:00",639918,6.581,299.3,3.91,1.522,4.425,101.3512,2.747,3.836,32.07,0,109.7,13.52,3.51,261.3
"2009-02-18 01:45:30",639919,6.812,307.9,5.681,1.175,6.451,101.3518,2.748,3.818,31.57,0,109.7,13.52,3.51,269.9
"2009-02-18 01:46:00",639920,4.567,310.1,9.12,1.277,5.056,101.3535,2.753,3.861,31.82,0,109.7,13.53,3.51,272.1
"2009-02-18 01:46:30",639921,5.638,309.4,7.904,1.293,6.473,101.3665,2.786,3.92,31.7,0,109.7,13.53,3.55,271.4
"2009-02-18 01:47:00",639922,5.011,307.7,10.38,1.158,7.04,101.3843,2.831,3.916,31.32,0,109.7,13.53,3.59,269.7
"2009-02-18 01:47:30",639923,4.863,319.1,7.289,1.144,6.449,101.39,2.846,3.878,30.93,0,109.7,13.53,3.61,281.1
"2009-02-18 01:48:00",639924,4.089,318.7,7.457,1.262,5.308,101.4019,2.876,3.885,30.82,0,109.7,13.53,3.64,280.7
"2009-02-18 01:48:30",639925,2.652,306.8,4.287,0.697,3.846,101.4135,2.906,3.897,30.95,0,109.7,13.53,3.67,268.8
"2009-02-18 01:49:00",639926,2.909,299.8,6.244,1.138,4.456,101.4251,2.936,3.803,30.43,0,109.7,13.53,3.70,261.8
"2009-02-18 01:49:30",639927,3.904,316.7,10.57,1.246,5.978,101.4242,2.933,3.977,30.59,0,109.7,13.53,3.70,278.7
"2009-02-18 01:50:00",639928,3.886,316.3,5.278,1.143,6.732,101.4344,2.959,3.968,30.55,0,109.7,13.53,3.72,278.3